AQI (54)

Current Conditions for Foresthill, CA. Clear skies, Dry   
Visibility: 10 miles
Space WX Alerts: ALERT:  Geomagnetic K-index of 4 ( Latest Alert ) - Issue Time: 2020 Aug 04 0455 UTC

  Summary / Temperature 

Current Temperature
68.2°F
20.1°C
(24/hr Ago)
71.2°F
(Apparent temp)
66.4°F
Comfortable
Wind Chill Graphs
68.3°F 

70.2°F/ 21.2°C
 --- Virtual Temp: 70.7°F ---

 Temp Rate:

 24/hr Difference:

 Avg Running Temp:

 Todays High:

 Todays Low:

 Y-days High:

 Y-days Low:

 Todays WChill:

 Y-days WChill:

 Evapotranspiration:

-0.6°F/hr 

-3°F

68.9°F

69.0°F 12:00am

68.2°F 12:42am

90.4°F 2:39pm

67.6°F 6:40am

68.2°F 12:42am

67.0°F 6:53am

0.003 in

115' Above Ground

 Temperature:

 6'AGL VRS 115'AGL:

 Avg Running Temp:

 Humidity:

 Todays High:

 Todays Low:

 Y-days High:

 Y-days Low:

70.0°F 

+1.8°F

70.6°F

48% 

71.0°F 12:00am

70.0°F 12:06am

86.0°F 2:04pm

69.0°F 6:57am

Temp & Humidity Graphs

  Wind 

Wind Speed

 4.0 mph

Gusting to

 11.0 mph

Wind from ESE

107°  ESE

Light breeze

 Avg speed:

 Wind Run:

 Peak Gust:

  3.0 mph 

2.0 miles

  12.0 mph 12:58am

  Almanac  

Moon age: 16 days,8 hours,52 minutes,97%

Waning Gibbous
97%
Illuminated
16 days in cycle

 Moonrise:

 Moonset:

 Sunrise:

 Sunset:

 Solar Noon:

9:47pm

7:59am

6:09am

8:10pm

1:09pm

2min 0s less daylight tomorrow 

  Solar Radiation 

(Current Solar)
  No Sun Light
(Todays High)
 None@12:00am

Rain

 Rain Today:

 Rain Rate (/hr):

 Rain last hour:

 Rain Yesterday:

 This Month:

 Season Total:

53 Days Since Last Rain Day

0.00 in

0.000 in

0.00 in

0.00 in

0.00 in

0.00 in

Updated Time

Updated: 8/5/20  1:09am

(Updated  sec ago)

Humidity & Barometer

 Humidity:

 Wetbulb:

 Dew Point:

 Barometer:

51% 

58.0°F 

49.4°F 

29.839 inHg 

 Baro Trend:  Steady 
Northern Calif
Preparedness
Fire 
Level 

    UV Index  

(Current UV)
0.0  None
(Todays High) @ 12:00am
0.0   None

National Weather Service Forecast

Tonight

Tonight: Mostly Clear
Mostly Clear
Wednesday

Wednesday: Sunny
Sunny
Wednesday
Night
Wednesday Night: Clear
Clear
Thursday

Thursday: Sunny
Sunny
Thursday
Night
Thursday Night: Clear
Clear
Friday

Friday: Sunny
Sunny
Lo 62 °F ↑ Hi 81 °F Lo 60 °F Hi 82 °F Lo 63 °F Hi 85 °F

Foresthill Probe 2 Stats  
Foresthill Probe 2: is located on Thomas Street
at 3000 feet. The main Foresthill Weather site
is located on Melody ln at the 2860 foot elevation

Calm
67.3°F
19.6°C
Temp Rate:
-0.5°F
Calm
Gusting to
1.0 mph
(Humidity)
54%
Wind from ESE
113°  ESE
Updated: 05/08/20 - 01:09:30
 Todays High: 67.9°F 00:04
 Todays Low: 67.2°F 00:56
 Rain Today: 0.00 in
 Season Total: 0.00 in

Foresthill Wx: Monthly,Yearly, Highs and Lows 

Foresthill  
This Weather Data is coming from the main Foresthill
Weather site located on Melody ln at the 2860 foot
elevation
Not Foresthill Probe 2
Weather Data
Month
  High
Month
  Low
Year
High
Year
Low
Temp 93.0°F
8/3/20
67.6°F
8/4/20
96.2°F
7/12/20
28.3°F
2/3/20
Humidity 52%
8/4/20
16%
8/1/20
100%
1/8/20
12%
2/17/20
Heat Index 89.5°F
8/3/20
67.1°F
8/3/20
98.7°F
6/26/20
28.2°F
2/4/20
Wind Chill 93.0°F
8/3/20
67.0°F
8/4/20
96.2°F
7/12/20
14.7°F
2/3/20
Wind Gust 21 mph
8/3/20
0 mph
8/1/20
46 mph
2/9/20
0 mph
1/1/20
Barometer 29.98 in
8/2/20
29.83 in
8/4/20
30.59 in
1/5/20
29.57 in
6/28/20
ET 0.24 in
8/2/20
0.00 in
8/1/20
0.31 in
6/27/20
0.00 in
1/1/20
Dew Point 52.4°F
8/4/20
34.5°F
8/1/20
67.5°F
6/26/20
-2.6°F
2/3/20
Visible Satellite Pacific Satellite US Radar Satellite Imagery Sacramento,CA.  (click to enlarge)
NWS Weather Forecast - Summary
Updated: Tuesday, August 4, 2020 - 2:48pm PDT
Locally Breezy Onshore Winds at Times Through Mid-Week
NWS Weather Forecast: Tonight and Wednesday (Updated: Tue, 04-Aug-2020 2:09pm PDT)
Tonight

Tonight: Mostly Clear
Mostly Clear

Lo 62 °F ↑
NWS forecast: Mostly clear. Low around 62, with temperatures rising to around 64 overnight. Southeast wind 5 to 8 mph.
Wednesday

Wednesday: Sunny
Sunny

Hi 81 °F
NWS forecast: Sunny, with a high near 81. South wind 2 to 8 mph.
YR.NO 10 Day Weather forecast
Last update: 08/04/2020 @ 18:43
Next update: 08/05/2020 @ 00:48
Provided by: 22
      Temperature Precipitation Pressure Wind  
Today
08/05/2020
00:00 06:00 64°F   29.90 inHg Light breeze from east 4 mph
  06:00 12:00 57°F   29.88 inHg Light breeze from east 4 mph
  12:00 18:00 81°F   29.89 inHg Gentle breeze from southwest 8 mph
  18:00 00:00 77°F   29.85 inHg Light breeze from southwest 7 mph
    (Click to enlarge)
meteogram

    Forecast for next 9 days

      Temperature Precip Pressure Wind  
Thursday
08/06/2020
00:00 06:00 59°F   29.87 inHg Light air from east 2 mph
  06:00 12:00 52°F   29.85 inHg Light air from east-northeast 2 mph
  12:00 18:00 77°F   29.87 inHg Light breeze from west-southwest 7 mph
  18:00 00:00 79°F   29.83 inHg Light breeze from west-southwest 6 mph
      Temperature Precip Pressure Wind  
Friday
08/07/2020
00:00 06:00 61°F   29.87 inHg Light air from east 3 mph
  05:00 11:00 55°F   29.86 inHg Light breeze from east 4 mph
  11:00 17:00 79°F   29.89 inHg Light breeze from west 6 mph
  17:00 23:00 82°F   29.87 inHg Light breeze from west-southwest 6 mph
  23:00 05:00 66°F   29.94 inHg Light air from east 1 mph
      Temperature Precip Pressure Wind  
Saturday
08/08/2020
05:00 11:00 57°F   29.92 inHg Light breeze from east 4 mph
  11:00 17:00 84°F   29.94 inHg Light breeze from west 6 mph
  17:00 23:00 88°F   29.89 inHg Light breeze from west-southwest 5 mph
  23:00 05:00 70°F   29.95 inHg Light air from east 3 mph
      Temperature Precip Pressure Wind  
Sunday
08/09/2020
05:00 11:00 59°F   29.91 inHg Light breeze from east 5 mph
  11:00 17:00 88°F   29.89 inHg Light breeze from west-southwest 6 mph
  17:00 23:00 91°F   29.83 inHg Light breeze from west-southwest 6 mph
  23:00 05:00 70°F   29.86 inHg Light air from east 3 mph
      Temperature Precip Pressure Wind  
Monday
08/10/2020
05:00 11:00 61°F   29.83 inHg Light breeze from east-northeast 6 mph
  11:00 17:00 90°F   29.86 inHg Light breeze from southwest 6 mph
  17:00 23:00 90°F   29.83 inHg Light breeze from southwest 7 mph
  23:00 05:00 70°F   29.86 inHg Light breeze from east 4 mph
      Temperature Precip Pressure Wind  
Tuesday
08/11/2020
05:00 11:00 61°F   29.83 inHg Light breeze from east-northeast 4 mph
  11:00 17:00 86°F   29.85 inHg Light breeze from west-southwest 6 mph
  17:00 23:00 88°F   29.81 inHg Light breeze from west-southwest 7 mph
  23:00 05:00 66°F   29.85 inHg Light breeze from east 4 mph
      Temperature Precip Pressure Wind  
Wednesday
08/12/2020
05:00 11:00 57°F   29.85 inHg Light breeze from east 5 mph
  11:00 17:00 86°F   29.89 inHg Light breeze from southwest 7 mph
  17:00 23:00 86°F   29.87 inHg Gentle breeze from southwest 8 mph
  23:00 05:00 68°F   29.92 inHg Light breeze from east 5 mph
      Temperature Precip Pressure Wind  
Thursday
08/13/2020
05:00 11:00 61°F   29.91 inHg Light breeze from east 6 mph
  11:00 17:00 84°F   29.97 inHg Gentle breeze from southwest 8 mph
  17:00 23:00 86°F   29.92 inHg Light breeze from southwest 6 mph
How Close Are We To this Month's Temperature Record ?
Updated Wednesday, Aug 5, 2020- 1:05:01 AM

Current Temperature: 68.2°F

August's High: Temperature Record 97.8°F - Set on Sat, Aug 11, 2012 - 2:34:00 PM
We are currently 29.6°F Less than this Month's record High

August's Low: Temperature Record 50.6°F - Set on Thu, Aug 30, 2018 - 7:12:00 AM
We are currently 17.6°F More than this Month's record Low

Weather History For Wednesday, August 5, 2020


On this Day - In Weather History ...
Data courtesy of weatherforyou.com
powered by Cumulus v1.9.3 (1059)
Ambient Weather VWS v14.00
Top Website Map Copyright © 2007 - 2020 Foresthillweather.com Never base important decisions on this or any weather information obtained from the Internet